Printer-friendly version

IAU Minor Planet Center

Minor Planet Center

MPEC 2001-N31: COMET C/2001 A2 (LINEAR)

The following Minor Planet Electronic Circular may be linked-to from your own Web pages, but must not otherwise be redistributed electronically.


Read MPEC 2001-N30 Read MPEC 2001-N32


M.P.E.C. 2001-N31                                Issued 2001 July 14, 15:22 UT

     The Minor Planet Electronic Circulars contain information on unusual
         minor planets and routine data on comets.  They are published
   on behalf of Commission 20 of the International Astronomical Union by the
          Minor Planet Center, Smithsonian Astrophysical Observatory,
                          Cambridge, MA 02138, U.S.A.

             Prepared using the Tamkin Foundation Computer Network

                              MPC@CFA.HARVARD.EDU
          URL http://cfa-www.harvard.edu/iau/mpc.html  ISSN 1523-6714

                           COMET C/2001 A2 (LINEAR)

Observations:
    CK01A02b   2001 06 25.78093 01 41 14.35 -13 48 40.3           3.6 T      372
    CK01A02b   2001 06 27.76655 01 18 16.51 -10 35 09.0           4.4 T      372
    CK01A02b  C2001 06 30.14361 00 50 26.31 -06 26 55.3           6.8 T      620
    CK01A02b  C2001 06 30.14515 00 50 25.17 -06 26 45.1           6.9 T      620
    CK01A02b  C2001 06 30.14659 00 50 24.19 -06 26 35.8           6.8 T      620
    CK01A02b   2001 06 30.75521 00 43 17.71 -05 21 24.5           4.9 T      372
    CK01A02b   2001 06 30.77590 00 43 03.03 -05 19 11.8                      372
    CK01A02b  C2001 07 01.13189 00 38 53.98 -04 41 04.7           7.0 T      620
    CK01A02b  C2001 07 01.13410 00 38 52.41 -04 40 50.5           7.1 T      620
    CK01A02b  C2001 07 01.13632 00 38 50.83 -04 40 36.1           7.1 T      620
    CK01A02b  C2001 07 01.13853 00 38 49.28 -04 40 22.1           6.9 T      620
    CK01A02b  C2001 07 01.70464 00 32 15.35 -03 39 35.3                      349
    CK01A02b  C2001 07 01.70508 00 32 15.05 -03 39 32.2                      349
    CK01A02b  C2001 07 01.70550 00 32 14.73 -03 39 29.6                      349
    CK01A02b  C2001 07 01.70594 00 32 14.42 -03 39 27.1           6.4 T      349
    CK01A02b  C2001 07 03.07990 00 16 26.60 -01 13 10.6                      169
    CK01A02b  C2001 07 03.08766 00 16 21.24 -01 12 21.3                      169
    CK01A02b  C2001 07 03.09330 00 16 17.26 -01 11 46.2                      169
    CK01A02b  C2001 07 03.09837 00 16 13.80 -01 11 14.1                      169
    CK01A02b  C2001 07 03.10271 00 16 10.75 -01 10 46.3                      169
    CK01A02b  C2001 07 03.10565 00 16 08.74 -01 10 27.2                      169
    CK01A02b  C2001 07 03.10576 00 16 08.84 -01 10 24.4           7.3 T      620
    CK01A02b  C2001 07 03.10889 00 16 06.52 -01 10 06.9                      169
    CK01A02b  C2001 07 03.11240 00 16 04.24 -01 09 42.5           7.3 T      620
    CK01A02b  C2001 07 03.11916 00 15 59.56 -01 08 59.7           7.2 T      620
    CK01A02b  C2001 07 03.13077 00 15 51.55 -01 07 46.0           7.3 T      620
    CK01A02b  C2001 07 03.66992 00 09 45.79 -00 11 11.4           7.0 T      340
    CK01A02b  C2001 07 03.67161 00 09 44.60 -00 10 58.9                      340
    CK01A02b  C2001 07 03.67301 00 09 43.65 -00 10 51.1                      340
    CK01A02b  C2001 07 03.67845 00 09 39.99 -00 10 18.2                      340
    CK01A02b  C2001 07 03.77192 00 08 36.05 -00 00 32.0                      360
    CK01A02b  C2001 07 03.77315 00 08 35.20 -00 00 24.3                      360
    CK01A02b  C2001 07 04.77159 23 57 26.66 +01 42 05.2                      300
    CK01A02b  C2001 07 04.78185 23 57 19.75 +01 43 07.3                      300
    CK01A02b  C2001 07 04.78282 23 57 19.11 +01 43 13.3                      300
    CK01A02b  C2001 07 04.78528 23 57 17.43 +01 43 28.1                      300
    CK01A02b  C2001 07 04.78660 23 57 16.53 +01 43 35.8                      300
    CK01A02b  C2001 07 05.98653 23 44 12.82 +03 42 13.0                      046
    CK01A02b  C2001 07 05.98965 23 44 10.83 +03 42 30.8                      046
    CK01A02b  C2001 07 05.99087 23 44 10.00 +03 42 38.0                      046
    CK01A02b  C2001 07 05.99755 23 44 05.66 +03 43 16.8                      046
    CK01A02b  C2001 07 05.99830 23 44 05.20 +03 43 21.6                      046
    CK01A02b  C2001 07 05.99870 23 44 04.91 +03 43 23.6                      046
    CK01A02b  C2001 07 06.95359 23 33 57.38 +05 13 37.7                      046
    CK01A02b  C2001 07 06.95448 23 33 56.80 +05 13 42.6                      046
    CK01A02b  C2001 07 06.95493 23 33 56.55 +05 13 45.2                      046
    CK01A02b  C2001 07 06.95542 23 33 56.25 +05 13 48.1                      046
    CK01A02b  C2001 07 07.07491 23 32 41.13 +05 24 53.7          11.8 N      941
    CK01A02b  C2001 07 08.02722 23 22 53.36 +06 50 08.4                      201
    CK01A02b  C2001 07 08.03008 23 22 51.60 +06 50 23.5                      201
    CK01A02b  C2001 07 08.03306 23 22 49.77 +06 50 38.8                      201
    CK01A02b  C2001 07 08.11968 23 21 56.65 +06 58 14.2          11.6 N      941
    CK01A02b  C2001 07 10.77855 22 56 12.82 +10 30 33.2                      300
    CK01A02b  C2001 07 10.77881 22 56 12.70 +10 30 34.4                      300
    CK01A02b  C2001 07 10.77932 22 56 12.38 +10 30 36.4                      300
    CK01A02b  C2001 07 10.77957 22 56 12.26 +10 30 37.4                      300
    CK01A02b  C2001 07 10.77983 22 56 12.11 +10 30 38.6                      300
    CK01A02b  C2001 07 10.91416 22 54 59.12 +10 40 15.9                      226
    CK01A02b  C2001 07 11.65520 22 48 16.68 +11 32 15.6           7.6 T      355
    CK01A02b  C2001 07 11.65723 22 48 15.56 +11 32 23.4                      355
    CK01A02b  C2001 07 11.65939 22 48 14.41 +11 32 32.6                      355
    CK01A02b  C2001 07 11.92202 22 45 54.97 +11 50 08.2                      226
    CK01A02b  C2001 07 13.00508 22 36 33.25 +12 59 16.7                      470
    CK01A02b  C2001 07 13.00608 22 36 32.73 +12 59 19.7                      470
    CK01A02b  C2001 07 13.00696 22 36 32.28 +12 59 23.1                      470
    CK01A02b  C2001 07 13.00784 22 36 31.83 +12 59 26.4                      470
    CK01A02b  C2001 07 13.00869 22 36 31.41 +12 59 29.6                      470
    CK01A02b  C2001 07 13.00966 22 36 30.89 +12 59 33.3                      470
    CK01A02b  C2001 07 13.09255 22 35 48.57 +13 04 37.9          10.5 N      170
    CK01A02b  C2001 07 13.09316 22 35 48.21 +13 04 39.8          10.6 N      170
    CK01A02b  C2001 07 13.10644 22 35 41.37 +13 05 28.1          10.5 N      170
    CK01A02b  C2001 07 13.98223 22 28 28.40 +13 56 27.4          11.2 N      170
    CK01A02b  C2001 07 13.98662 22 28 26.32 +13 56 41.9          11.2 N      170
    CK01A02b  C2001 07 13.98875 22 28 25.19 +13 56 49.0          11.2 N      170
    CK01A02b  C2001 07 13.99435 22 28 22.39 +13 57 08.4          11.2 N      170
    CK01A02b  C2001 07 14.00266 22 28 18.40 +13 57 36.4          11.2 N      170
    CK01A02b  C2001 07 14.01028 22 28 14.63 +13 58 01.9          11.2 N      170
    CK01A02b  C2001 07 14.03454 22 28 02.40 +13 59 21.4                      046
    CK01A02b  C2001 07 14.03515 22 28 02.10 +13 59 23.4                      046
    CK01A02b  C2001 07 14.03553 22 28 01.91 +13 59 24.7                      046
    CK01A02b  C2001 07 14.03667 22 28 01.34 +13 59 28.4                      046
    CK01A02b  C2001 07 14.03704 22 28 01.17 +13 59 29.7                      046
    CK01A02b  C2001 07 14.03745 22 28 00.97 +13 59 31.2                      046

Observer details:
046 Klet.  Observers J. Ticha, M. Tichy, P. Jelinek.  0.57-m f/5.2 reflector
    + CCD.
169 Airali.  Observer S. Puccini.  0.25-m f/5.1 Schmidt-Cassegrain + CCD.
170 Beques.  Observer J. Manteca.  0.26-m Schmidt-Cassegrain + CCD.
201 Postel.  Observer V. Pozzoli.  0.30-m f/10.0 reflector + CCD.
226 Guido Ruggieri Observatory, Padua.  Observer G. Favero.  0.30-m f/7
    reflector + CCD.  Long. = 11.8858, rho cos phi' = 0.70293, rho sin phi'
    = +0.70888.
300 Bisei Spaceguard Center--BATTeRS.  Observers A. Asami, D. J. Asher,
    S. Hashimoto, S. Isobe, S. Nakano, Y. Oshima, J. Terazono, T. Urata,
    M. Yoshikawa.  0.50-m f/2.0 reflector + CCD.
340 Toyonaka.  Observer Y. Ezaki.  0.3-m f/6.0 reflector + CCD.
349 Ageo.  Observer K. Kadota.  0.18-m f/5.5 reflector + CCD.
355 Hadano.  Observer A. Asami.  0.28-m f/5.0 reflector + CCD.
360 Kuma Kogen.  Observer A. Nakamura.  0.60-m f/6.0 Ritchey-Chretien + CCD.
372 Geisei.  Observer T. Seki.  0.60-m f/3.5 reflector.
470 Ceccano.  Observer G. Masi.  0.28-m f/3.3 reflector + CCD.
620 Mallorca.  Observer S. Sanchez.  Measurer J. Rodriguez.  0.4-m f/4.6
    reflector + CCD.
941 Pla D'Arguines.  Observer R. Ferrando.  0.26-m f/10 Schmidt-Cassegrain
    + CCD.

Orbital elements:
    C/2001 A2-B (LINEAR)
Epoch 2001 May 11.0 TT = JDT 2452040.5
T 2001 May 24.52035 TT                                  Marsden
q   0.7790268            (2000.0)            P               Q
z  +0.0008558      Peri.  295.32885     -0.47639697     +0.69524258
 +/-0.0000047      Node   295.12523     -0.42477671     -0.71796675
e   0.9993333      Incl.   36.47489     -0.76981210     -0.03408092
From 505 observations 2001 Jan. 3-July 14, mean residual 0".57.  Non-
   gravitational parameters A1 = +0.54 +/- 0.03, A2 = -0.4839 +/- 0.0244.

